www.pogodaiklimat.ru

Погода и климат >> Архив погоды >> Россия >> Красноярский край >> Верхнеимбатск


АРХИВ ПОГОДЫ в Верхнеимбатске

Время (UTC), дата Ветер
(напр.,м/с)
 
Видим.   Явления Облачность Т
(С)
Тd
(С)
f
(%)
Тe
(С)
Тes
(С)
Комфортность P
(гПа)
Po
(гПа)
Тmin
(С)
Tmax
(С)
R
(мм)
R24
(мм)
S
(см)
06 17.07 В 3 20 км 9/0
[Cs]
+29.8 +13.9 38 +32 +40 душно 1009.3 1004.2
09 17.07 СВ 1 20 км 9/0
[Cs]
+30.4 +17.6 46 +34 +43 очень
душно
1008.3 1003.3
12 17.07 В 1 20 км 10/0
[Cs]
+30.0 +19.7 54 +36 +38 очень
душно
1008.1 1003.1 +30.5
15 17.07 штиль 0 20 км 10/0
[Ci fib]
+26.5 +20.4 69 +33 +33 очень
душно
1008.1 1003.0
18 17.07 СВ 4 н/о ясно +23.3 +16.6 66 +28 +28 душно 1007.8 1002.6
21 17.07 СВ 2 20 км ясно +21.2 +15.9 72 +25 +25 комфорт 1007.7 1002.5
00 18.07 СВ 3 20 км ясно +22.2 +15.9 67 +26 +28 душно 1007.7 1002.5 +20.0
03 18.07 В 3 20 км 6/0
[Cs]
+26.2 +17.6 59 +30 +36 душно 1009.2 1004.1
06 18.07 СВ 1 20 км 4/0
[Cs]
+29.8 +20.0 56 +36 +49 очень
душно
1009.7 1004.6
09 18.07 В 3 20 км 3/3 600 м
[Cu hum]
+31.0 +18.7 48 +36 +41 очень
душно
1006.7 1001.7
12 18.07 В 3 20 км 6/0
[Cs]
+30.2 +18.8 51 +36 +37 очень
душно
1007.9 1002.9 +31.3
15 18.07 СВ 1 20 км 3/0
[Cs]
+26.4 +19.1 64 +32 +32 очень
душно
1008.5 1003.4
18 18.07 В 3 н/о 3/0
[Ac cast Cs]
+23.4 +17.3 69 +29 +29 душно 1009.4 1004.2
21 18.07 В 2 20 км 3/0
[As trans Ci fib]
+21.0 +15.3 70 +25 +25 комфорт 1009.9 1004.7
00 19.07 В 4 20 км 3/3 600 м
[Sc Cs]
+20.2 +13.2 64 +22 +23 комфорт 1011.1 1005.7 +19.5
03 19.07 СВ 3 20 км ясно +23.0 +13.8 56 +26 +33 жарко 1012.3 1007.0
06 19.07 В 4 20 км ясно +25.5 +14.7 51 +28 +36 жарко 1013.2 1007.9
09 19.07 В 4 20 км ясно +27.1 +12.6 41 +29 +34 жарко 1013.1 1007.9
12 19.07 В 3 20 км ясно +25.8 +11.6 41 +27 +29 жарко 1013.8 1008.5 +27.3
15 19.07 В 1 20 км ясно +20.9 +9.8 49 +24 +24 комфорт 1014.3 1008.9
18 19.07 СВ 3 н/о ясно +16.5 +8.0 57 +16 +16 1015.2 1009.8
21 19.07 В 3 20 км ясно +16.2 +7.2 55 +16 +16 1016.5 1011.1
00 20.07 В 2 20 км ясно +16.9 +7.8 55 +17 +19 1018.2 1012.8 +15.6
03 20.07 В 3 20 км 8/0
[Ci fib]
+20.4 +9.1 48 +22 +28 комфорт 1019.3 1013.9
06 20.07 СВ 2 20 км 3/0
[Ci fib]
+22.4 +6.6 36 +23 +34 комфорт 1018.9 1013.6
09 20.07 В 5 20 км ясно +23.8 +8.8 38 +24 +29 комфорт 1017.7 1012.4
12 20.07 В 3 20 км ясно +24.1 +8.2 36 +25 +27 комфорт 1016.8 1011.5 +24.1
15 20.07 штиль 0 20 км ясно +20.3 +13.1 63 +22 +22 комфорт 1017.3 1011.9
18 20.07 СВ 3 н/о ясно +16.2 +8.8 62 +16 +16 1017.1 1011.7
21 20.07 СВ 2 20 км ясно +14.1 +7.4 64 +14 +14 1016.6 1011.2
00 21.07 СВ 2 20 км ясно +14.7 +7.9 64 +14 +16 1016.4 1011.0 +13.0
03 21.07 В 2 20 км 8/0
[Ci fib]
+20.4 +10.5 53 +23 +29 комфорт 1015.6 1010.2
06 21.07 СВ 3
{10}
4000 м дым 8/0
[Ci fib]
+23.2 +8.1 38 +24 +33 комфорт 1014.3 1009.0
09 21.07 В 2 4000 м дым 8/0
[Ci fib]
+23.4 +8.4 38 +25 +32 комфорт 1013.4 1008.1
12 21.07 СВ 1 4000 м дым 6/0
[Ci fib]
+24.0 +9.8 41 +25 +27 комфорт 1012.8 1007.5 +24.1
15 21.07 СВ 1 4000 м дым 8/0
[Ci fib]
+19.6 +12.3 63 +22 +22 комфорт 1012.8 1007.4
18 21.07 В 1 н/о дым 3/0
[Ci fib]
+15.6 +8.8 64 +16 +16 1012.1 1006.7
21 21.07 СВ 2 20 км ясно +13.5 +7.9 69 +13 +13 1010.7 1005.3
00 22.07 СВ 2 20 км ясно +14.2 +8.0 66 +14 +16 1009.5 1004.1 +13.0
03 22.07 штиль 0 4000 м дым 8/0
[Cs]
+17.5 +11.7 69 +18 +26 1009.9 1004.6
06 22.07 штиль 0 4000 м дым 8/0
[Cs]
+17.7 +12.3 71 +18 +31 опасность
простуды
1009.1 1003.8
09 22.07 штиль 0 4000 м дым 8/0
[Cs]
+18.6 +12.7 69 +19 +29 1007.3 1002.0
12 22.07 штиль 0 4000 м дым 10/0
[Cs]
+18.6 +13.5 72 +19 +22 1007.2 1001.9 +19.3
15 22.07 СВ 1 4000 м дым 10/0
[As trans]
+17.6 +13.4 76 +19 +19 1006.5 1001.2
18 22.07 СВ 2 н/о дым 10/0
[As trans]
+16.0 +12.0 77 +16 +16 1005.7 1000.4
21 22.07 В 1 4000 м дым 10/0
[As trans]
+14.4 +11.8 84 +15 +15 1004.9 999.5
00 23.07 В 1 4000 м дым 10/0
[As trans]
+13.8 +12.3 91 +14 +15 1004.8 999.4 +13.8
03 23.07 штиль 0 4000 м дым 10/0
[As trans]
+15.6 +13.5 87 +15 +20 1003.7 998.3
06 23.07 штиль 0 4000 м дым 10/0
[As trans]
+17.0 +14.0 82 +17 +23 1002.8 997.5
09 23.07 штиль 0 4000 м дым 10/0
[As trans]
+17.8 +14.7 82 +18 +22 1003.1 997.8
12 23.07 штиль 0 4000 м дым 10/0
[As trans]
+19.4 +15.3 77 +21 +22 комфорт 1003.4 998.1 +19.4
15 23.07 штиль 0 4000 м дым 10/0
[As trans]
+16.8 +15.1 90 +17 +17 1003.5 998.2
18 23.07 штиль 0 н/о туман 10/0
[As trans]
+13.3 +12.6 96 +13 +13 1003.0 997.6
21 23.07 С 1 10 км слаб. дождь {туман} 10/10 600 м
[Sc]
+12.8 +12.2 96 +13 +13 1003.9 998.5
00 24.07 В 1 4000 м дым {дождь, туман} 10/10 600 м
[Sc]
+14.1 +13.4 96 +14 +14 1003.7 998.3 +11.7 0.3
03 24.07 В 1 4000 м дым 8/8 600 м
[Cb cap]
+17.2 +15.1 87 +18 +20 1002.1 996.8

 

Местоположение метеостанции Верхнеимбатск (Красноярский край, Россия): широта 63.15 долгота 87.95 высота над уровнем моря 45 м.

В архиве по умолчанию представлена погода в Верхнеимбатске за последнюю неделю. Архивные данные за месяц целиком и за предыдущие месяцы, начиная с января 2011 года, Вы можете получить, выбрав интересующий диапазон дат из раскрывающегося списка и нажав кнопку "Ввод!".


*Определитесь, кто Вы:
робот инопланетянин человек

Внимание! Время в таблицах - всемирное. Для получения местного времени необходимо прибавить поправку, которая равна 7 ч.

Смотрите также архив погоды в соседних городах и на ближайших метеорологических станциях:

Погода в Бахте (Красноярский край, Россия) (93 км)
Погода в Келлоге (Красноярский край, Россия) (113 км)
Погода в Верещагино (Красноярский край, Россия) (122 км)
Погода в Бору (Красноярский край, Россия) (203 км)
Погода в Кузьмовке (Эвенкия, Россия) (232 км)
Погода в Ворогово (Красноярский край, Россия) (251 км)
Погода в Туруханске (Красноярский край, Россия) (293 км)
Погода в Большом Пороге (Эвенкия, Россия) (294 км)
Погода в Тольке (Ямало-Ненецкий АО, Россия) (305 км)
Погода в Тутончанах (Эвенкия, Россия) (310 км)

Пояснения к столбцам:

Ветер - указаны скорость ветра в м/с - средняя за 10 мин, порывы в срок и между сроками (в фигурных скобках) и направление, откуда дует ветер: С - северный, СВ - северо-восточный, В - восточный, ЮВ - юго-восточный, Ю - южный, ЮЗ - юго-западный, З - западный, СЗ - северо-западный.
Видимость - горизонтальная дальность видимости в метрах или километрах. При видимости от 1 до 10 км при отсутствии осадков обычно наблюдается дымка, при ухудшении видимости до 1 км и менее - туман. В сухую погоду видимость может ухудшаться дымом, пылью или мглою.
Явления - указаны атмосферные явления, наблюдавшиеся в срок или в последний час перед сроком; фигурными скобками обозначены явления, наблюдавшиеся между сроками (за 1-3 часа до срока); квадратными скобками обозначены град или гололедные отложения с указанием их диаметра в мм.
Облачность - указаны через наклонную черту общая и нижняя облачность в баллах и высота нижней границы облаков в метрах; квадратными скобками обозначены формы облаков: Ci - перистые, Cs - перисто-слоистые, Cc - перисто-кучевые, Ac - высококучевые, As - высокослоистые, Sc - слоисто-кучевые, Ns - слоисто-дождевые, Cu - кучевые, Cb - кучево-дождевые. Подробнее классификацию облаков см. в Атласе облаков (PDF).
T - Температура воздуха - температура, измеренная на высоте 2 м над землей.
Td - Температура точки росы - температура, при понижении до которой содержащийся в воздухе водяной пар достигнет насыщения.
f - Относительная влажность воздуха - влажноcть воздуха, измеренная на высоте 2 м над землей.
Te - Эффективная температура - температура, которую ощущает одетый по сезону человек в тени. Характеристика душности погоды. При расчете учитывается влияние влажности воздуха и скорости ветра на теплоощущения человека.
Tes - Эффективная температура на солнце - температура, которую ощущает человек, с поправкой на солнечный нагрев. Характеристика знойности погоды. Зависит от высоты солнца над горизонтом, облачности и скорости ветра. Ночью, в пасмурную погоду, а также при ветре 12 м/с и более поправка равна нулю.
P - Атмосферное давление - приведенное к уровню моря атмосферное давление.
Po - Атмосферное давление - измеренное на уровне метеостанции атмосферное давление.
Tmin - Минимальная температура - минимум температуры воздуха на высоте 2 м над землей.
Tmax - Максимальная температура - максимум температуры воздуха на высоте 2 м над землей.
R - Количество осадков - Количество выпавших осадков за период времени, мм. При наведении курсора мыши на число - период времени, за который выпало указанное количество осадков.
R24 - Количество осадков - Количество выпавших осадков за 24 часа, мм.
S - Снежный покров - Высота снежного покрова, см. При наведении курсора мыши на число - состояние снежного покрова и степень покрытия местности в баллах.